www.pogodaiklimat.ru

Погода и климат >> Архив погоды >> Кувейт >> Experimental Farm


ПОГОДА в Experimental Farm

  • Прогноз погоды в Experimental Farm
  • Монитор погоды в Experimental Farm
  • Климат города

АРХИВ ПОГОДЫ в Experimental Farm

Время (UTC), дата Ветер
(напр.,м/с)
 
Видим.   Явления Облачность Т
(С)
Тd
(С)
f
(%)
Тe
(С)
Тes
(С)
Комфортность P
(гПа)
Po
(гПа)
Тmin
(С)
Tmax
(С)
R
(мм)
R24
(мм)
S
(см)
21 8.12 СВ 1 н/о н/о +17.2 +14.9 86 +19 +19 1019.0 1019.0 +13.6 +26.8
00 9.12 штиль 0 н/о н/о +15.9 +14.8 93 +16 +16 1018.6 1019.0
03 9.12 ЮЗ 1 н/о н/о +15.6 +14.8 95 +17 +17 1019.2 1019.0
06 9.12 В 1 н/о н/о +21.9 +16.5 71 +26 +26 душно 1020.7 1021.0
09 9.12 ЮВ 1 н/о н/о +24.1 +10.9 43 +25 +25 комфорт 1019.5 1020.0
12 9.12 В 1 н/о н/о +23.0 +11.8 49 +25 +25 комфорт 1018.3 1018.0
15 9.12 В 1 н/о н/о +20.3 +14.0 67 +24 +24 комфорт 1019.1 1019.0
18 9.12 В 1 н/о н/о +19.0 +12.7 67 +22 +22 комфорт 1019.6 1020.0
21 9.12 штиль 0 н/о н/о +17.0 +11.3 69 +17 +17 1019.0 1019.0 +15.3 +25.0
00 10.12 штиль 0 н/о н/о +15.8 +12.9 83 +16 +16 1018.8 1019.0
03 10.12 Ю 1 н/о н/о +15.2 +14.2 94 +16 +16 1018.6 1019.0
06 10.12 С 1 н/о н/о +19.5 +14.6 73 +22 +22 комфорт 1019.7 1020.0
09 10.12 С 1 н/о н/о +22.4 +11.5 50 +25 +25 комфорт 1018.3 1018.0
12 10.12 С 1 н/о н/о +21.6 +11.4 52 +24 +24 комфорт 1017.5 1018.0
15 10.12 С 1 н/о н/о +18.2 +11.9 67 +20 +20 1018.9 1019.0
18 10.12 З 1 н/о н/о +16.5 +12.3 76 +18 +18 1019.6 1020.0
21 10.12 СЗ 1 н/о н/о +16.2 +11.8 75 +18 +18 1019.9 1020.0 +15.0 +23.8
03 11.12 СЗ 2 н/о н/о +15.6 +12.4 81 +16 +16 1021.6 1022.0
06 11.12 С 1 н/о н/о +19.4 +12.2 63 +22 +22 комфорт 1023.1 1023.0
09 11.12 СЗ 3 н/о н/о +21.0 +10.7 52 +23 +23 комфорт 1021.7 1022.0
12 11.12 С 2 н/о н/о +22.9 +8.7 40 +24 +24 комфорт 1020.6 1021.0
15 11.12 СЗ 1 н/о н/о +18.8 +8.8 52 +20 +20 1021.6 1022.0
18 11.12 СЗ 2 н/о н/о +18.1 +8.5 53 +19 +19 1022.1 1022.0
21 11.12 СЗ 1 н/о н/о +15.6 +10.6 72 +16 +16 1022.4 1022.0 +14.0 +23.4
00 12.12 СЗ 1 н/о н/о +13.9 +10.7 81 +14 +14 1022.1 1022.0
03 12.12 З 1 н/о н/о +12.8 +10.0 83 +13 +13 1022.8 1023.0
06 12.12 СЗ 1 н/о н/о +18.5 +10.9 61 +20 +20 1023.9 1024.0
09 12.12 С 2 н/о н/о +22.3 +10.4 47 +24 +24 комфорт 1021.8 1022.0
12 12.12 С 2 н/о н/о +22.5 +8.8 42 +24 +24 комфорт 1020.9 1021.0
15 12.12 штиль 0 н/о н/о +16.7 +10.2 65 +17 +17 1021.5 1022.0
18 12.12 штиль 0 н/о н/о +14.6 +10.2 75 +14 +14 1021.7 1022.0
21 12.12 Ю 1 н/о н/о +12.9 +10.3 84 +14 +14 1021.5 1022.0 +11.5 +23.4
00 13.12 Ю 1 н/о н/о +12.0 +10.0 88 +13 +13 1021.5 1022.0
03 13.12 ЮЗ 1 н/о н/о +11.3 +10.0 92 +12 +12 1022.3 1022.0
06 13.12 С 1 н/о н/о +18.8 +9.9 56 +21 +21 комфорт 1024.0 1024.0
09 13.12 С 1 н/о н/о +24.0 +10.6 43 +25 +25 комфорт 1022.3 1022.0
12 13.12 СВ 2 н/о н/о +22.1 +9.7 45 +24 +24 комфорт 1021.3 1021.0
15 13.12 В 1 н/о н/о +16.9 +11.0 68 +18 +18 1022.7 1023.0
18 13.12 Ю 1 н/о н/о +15.2 +11.7 80 +16 +16 1023.6 1024.0
21 13.12 СЗ 1 н/о н/о +13.9 +12.0 88 +15 +15 1023.0 1023.0 +11.0 +24.8
00 14.12 З 1 н/о н/о +13.2 +12.0 92 +14 +14 1023.6 1024.0
03 14.12 С 1 н/о н/о +13.7 +12.6 93 +14 +14 1024.4 1024.0
06 14.12 С 1 н/о н/о +20.2 +12.9 63 +23 +23 комфорт 1025.6 1026.0
09 14.12 СЗ 2 н/о н/о +21.8 +12.2 54 +24 +24 комфорт 1024.1 1024.0
12 14.12 С 2 н/о н/о +23.5 +13.4 53 +26 +26 жарко 1023.2 1023.0
15 14.12 СЗ 2 н/о н/о +20.4 +10.6 53 +23 +23 комфорт 1024.5 1025.0
18 14.12 СЗ 3 н/о н/о +19.0 +9.4 54 +20 +20 1025.0 1025.0
21 14.12 СЗ 2 н/о н/о +16.8 +10.7 67 +17 +17 1024.5 1025.0 +12.7 +23.9
00 15.12 СЗ 2 н/о н/о +16.0 +11.2 73 +16 +16 1024.7 1025.0
03 15.12 СЗ 2 н/о н/о +15.0 +8.7 66 +15 +15 1025.3 1025.0
06 15.12 СЗ 3 н/о н/о +16.6 +5.0 46 +16 +16 1027.4 1027.0
09 15.12 С 4 н/о н/о +19.8 +4.1 35 +20 +20 1025.2 1025.0
12 15.12 СЗ 3 н/о н/о +21.0 +3.6 32 +22 +22 комфорт 1024.1 1024.0
15 15.12 СЗ 3 н/о н/о +18.6 +3.4 36 +19 +19 1025.3 1025.0

 

Местоположение метеостанции Experimental Farm (Кувейт): широта 29.29 долгота 47.94 высота над уровнем моря 21 м.

В архиве по умолчанию представлена погода в Experimental Farm за последнюю неделю. Архивные данные за месяц целиком и за предыдущие месяцы, начиная с января 2011 года, Вы можете получить, выбрав интересующий диапазон дат из раскрывающегося списка и нажав кнопку "Ввод!".


*Определитесь, кто Вы:
робот инопланетянин человек

Внимание! Время в таблицах - всемирное. Для получения местного времени необходимо прибавить поправку, которая в Experimental Farm равна 3 ч.

Смотрите также архив погоды в соседних городах и на ближайших метеорологических станциях:

Погода в Kuwait (Кувейт) (8 км)
Погода в Kuwait City (Кувейт) (12 км)
Погода в Al-Shuaiba (Кувейт) (17 км)
Погода в Sulaibiya (Кувейт) (21 км)
Погода в Jahra (Кувейт) (26 км)
Погода в Failaka Island (Кувейт) (39 км)
Погода в Minagish (Кувейт) (47 км)
Погода в Jal Aliyah (Кувейт) (50 км)
Погода в Sabriyah (Кувейт) (52 км)
Погода в Juluiah Port (Кувейт) (57 км)

Пояснения к столбцам:

Ветер - указаны скорость ветра в м/с - средняя за 10 мин, порывы в срок и между сроками (в фигурных скобках) и направление, откуда дует ветер: С - северный, СВ - северо-восточный, В - восточный, ЮВ - юго-восточный, Ю - южный, ЮЗ - юго-западный, З - западный, СЗ - северо-западный.
Видимость - горизонтальная дальность видимости в метрах или километрах. При видимости от 1 до 10 км при отсутствии осадков обычно наблюдается дымка, при ухудшении видимости до 1 км и менее - туман. В сухую погоду видимость может ухудшаться дымом, пылью или мглою.
Явления - указаны атмосферные явления, наблюдавшиеся в срок или в последний час перед сроком; фигурными скобками обозначены явления, наблюдавшиеся между сроками (за 1-3 часа до срока); квадратными скобками обозначены град или гололедные отложения с указанием их диаметра в мм.
Облачность - указаны через наклонную черту общая и нижняя облачность в баллах и высота нижней границы облаков в метрах; квадратными скобками обозначены формы облаков: Ci - перистые, Cs - перисто-слоистые, Cc - перисто-кучевые, Ac - высококучевые, As - высокослоистые, Sc - слоисто-кучевые, Ns - слоисто-дождевые, Cu - кучевые, Cb - кучево-дождевые. Подробнее классификацию облаков см. в Атласе облаков (PDF).
T - Температура воздуха - температура, измеренная на высоте 2 м над землей.
Td - Температура точки росы - температура, при понижении до которой содержащийся в воздухе водяной пар достигнет насыщения.
f - Относительная влажность воздуха - влажноcть воздуха, измеренная на высоте 2 м над землей.
Te - Эффективная температура - температура, которую ощущает одетый по сезону человек в тени. Характеристика душности погоды. При расчете учитывается влияние влажности воздуха и скорости ветра на теплоощущения человека.
Tes - Эффективная температура на солнце - температура, которую ощущает человек, с поправкой на солнечный нагрев. Характеристика знойности погоды. Зависит от высоты солнца над горизонтом, облачности и скорости ветра. Ночью, в пасмурную погоду, а также при ветре 12 м/с и более поправка равна нулю.
P - Атмосферное давление - приведенное к уровню моря атмосферное давление.
Po - Атмосферное давление - измеренное на уровне метеостанции атмосферное давление.
Tmin - Минимальная температура - минимум температуры воздуха на высоте 2 м над землей.
Tmax - Максимальная температура - максимум температуры воздуха на высоте 2 м над землей.
R - Количество осадков - Количество выпавших осадков за период времени, мм. При наведении курсора мыши на число - период времени, за который выпало указанное количество осадков.
R24 - Количество осадков - Количество выпавших осадков за 24 часа, мм.
S - Снежный покров - Высота снежного покрова, см. При наведении курсора мыши на число - состояние снежного покрова и степень покрытия местности в баллах.